| time (UTC) | temp C | wind direction | speed KPH | gust KPH | rain 1hr cm | rain 24hr cm | rain mn cm | humidity % | barometer mb |
| 20260506221550 | 6 | 0 | 0.0 | 0.0 | 0.08 | 1.93 | 1.93 | 95 | 1007.0 |
| 20260506220052 | 6 | 0 | 0.0 | 0.0 | 0.05 | 1.91 | 1.91 | 95 | 1006.9 |
| 20260506214552 | 6 | 0 | 0.0 | 0.0 | 0.05 | 1.91 | 1.88 | 95 | 1006.8 |
| 20260506213105 | 6 | 0 | 0.0 | 0.0 | 0.03 | 1.88 | 1.85 | 95 | 1006.6 |
| 20260506211552 | 6 | 0 | 0.0 | 0.0 | 0.05 | 1.88 | 1.85 | 95 | 1006.5 |
| 20260506210055 | 6 | 0 | 0.0 | 0.0 | 0.05 | 1.88 | 1.85 | 95 | 1006.4 |
| 20260506204551 | 6 | 0 | 0.0 | 0.0 | 0.05 | 1.85 | 1.83 | 95 | 1006.5 |
| 20260506203056 | 6 | 0 | 0.0 | 0.0 | 0.05 | 1.85 | 1.83 | 95 | 1006.2 |
| 20260506201555 | 6 | 0 | 0.0 | 0.0 | 0.05 | 1.83 | 1.80 | 95 | 1006.3 |
| 20260506200054 | 6 | 0 | 0.0 | 0.0 | 0.05 | 1.83 | 1.80 | 95 | 1006.2 |
| 20260506194621 | 6 | 0 | 0.0 | 0.0 | 0.05 | 1.96 | 1.78 | 95 | 1006.4 |
| 20260506193103 | 6 | 0 | 0.0 | 0.0 | 0.08 | 1.96 | 1.78 | 95 | 1006.4 |
| 20260506191556 | 6 | 0 | 0.0 | 0.0 | 0.08 | 1.93 | 1.75 | 95 | 1006.4 |
| 20260506190055 | 6 | 0 | 0.0 | 8.0 | 0.08 | 1.93 | 1.75 | 95 | 1006.4 |
| 20260506184555 | 6 | 0 | 0.0 | 0.0 | 0.10 | 1.91 | 1.73 | 95 | 1006.6 |
| 20260506183053 | 6 | 0 | 0.0 | 0.0 | 0.18 | 1.88 | 1.70 | 95 | 1006.7 |
| 20260506181549 | 6 | 0 | 0.0 | 4.8 | 0.23 | 1.85 | 1.68 | 95 | 1006.8 |
| 20260506180106 | 6 | 0 | 0.0 | 14.5 | 0.38 | 1.85 | 1.68 | 94 | 1006.7 |
| 20260506174555 | 6 | 0 | 0.0 | 0.0 | 0.38 | 1.80 | 1.63 | 95 | 1006.7 |
| 20260506173057 | 6 | 0 | 0.0 | 6.4 | 0.33 | 1.70 | 1.52 | 95 | 1007.0 |
| 20260506171602 | 6 | 0 | 0.0 | 12.9 | 0.30 | 1.60 | 1.42 | 95 | 1006.8 |
| 20260506170104 | 6 | 0 | 0.0 | 6.4 | 0.23 | 1.47 | 1.30 | 94 | 1007.0 |
| 20260506164606 | 6 | 0 | 0.0 | 6.4 | 0.23 | 1.42 | 1.24 | 94 | 1007.1 |
| 20260506163119 | 7 | 0 | 0.0 | 12.9 | 0.28 | 1.37 | 1.19 | 95 | 1007.0 |
| 20260506161618 | 7 | 0 | 0.0 | 6.4 | 0.28 | 1.30 | 1.12 | 95 | 1007.1 |
| 20260506160057 | 7 | 0 | 0.0 | 4.8 | 0.30 | 1.24 | 1.07 | 95 | 1007.2 |
| 20260506154610 | 7 | 0 | 0.0 | 0.0 | 0.30 | 1.19 | 1.02 | 95 | 1007.5 |
| 20260506153059 | 7 | 0 | 0.0 | 0.0 | 0.28 | 1.09 | 0.91 | 95 | 1007.7 |
| 20260506151555 | 7 | 0 | 0.0 | 0.0 | 0.30 | 1.02 | 0.84 | 94 | 1007.7 |
| 20260506150123 | 7 | 0 | 0.0 | 0.0 | 0.25 | 0.94 | 0.76 | 94 | 1007.9 |
| 20260506144548 | 7 | 0 | 0.0 | 0.0 | 0.25 | 0.89 | 0.71 | 94 | 1008.0 |
| 20260506143103 | 7 | 0 | 0.0 | 0.0 | 0.20 | 0.81 | 0.64 | 94 | 1008.1 |
| 20260506141553 | 7 | 0 | 0.0 | 8.0 | 0.15 | 0.71 | 0.53 | 94 | 1008.1 |
| 20260506140057 | 7 | 0 | 0.0 | 8.0 | 0.18 | 0.69 | 0.51 | 93 | 1008.1 |
| 20260506134556 | 7 | 0 | 0.0 | 6.4 | 0.20 | 0.64 | 0.46 | 93 | 1008.0 |
| 20260506133048 | 7 | 0 | 0.0 | 8.0 | 0.23 | 0.61 | 0.43 | 94 | 1008.0 |
| 20260506131552 | 7 | 0 | 0.0 | 0.0 | 0.20 | 0.56 | 0.38 | 93 | 1008.1 |
| 20260506130052 | 7 | 0 | 0.0 | 6.4 | 0.18 | 0.51 | 0.33 | 93 | 1008.2 |
| 20260506124550 | 7 | 0 | 0.0 | 9.7 | 0.13 | 0.43 | 0.25 | 92 | 1008.4 |
| 20260506123049 | 8 | 0 | 0.0 | 6.4 | 0.08 | 0.38 | 0.20 | 91 | 1008.5 |
| 20260506121552 | 8 | 0 | 0.0 | 8.0 | 0.08 | 0.36 | 0.18 | 91 | 1008.2 |
| 20260506120057 | 9 | 0 | 0.0 | 6.4 | 0.05 | 0.33 | 0.15 | 92 | 1008.2 |
| 20260506114558 | 9 | 0 | 0.0 | 8.0 | 0.03 | 0.30 | 0.13 | 91 | 1007.9 |
| 20260506113050 | 10 | 0 | 0.0 | 12.9 | 0.03 | 0.30 | 0.13 | 92 | 1007.8 |
| 20260506111554 | 10 | 0 | 0.0 | 0.0 | 0.03 | 0.28 | 0.10 | 92 | 1007.8 |
| 20260506110100 | 10 | 0 | 0.0 | 8.0 | 0.03 | 0.28 | 0.10 | 92 | 1007.9 |
| 20260506104554 | 10 | 0 | 0.0 | 0.0 | 0.03 | 0.28 | 0.10 | 91 | 1007.6 |
| 20260506103051 | 10 | 0 | 0.0 | 0.0 | 0.03 | 0.28 | 0.10 | 91 | 1007.6 |
| 20260506101605 | 11 | 0 | 0.0 | 1.6 | 0.00 | 0.25 | 0.08 | 92 | 1007.3 |
| 20260506100058 | 11 | 0 | 0.0 | 1.6 | 0.00 | 0.25 | 0.08 | 93 | 1007.1 |
| 20260506094615 | 11 | 0 | 0.0 | 0.0 | 0.00 | 0.25 | 0.08 | 94 | 1007.0 |
| 20260506093055 | 11 | 0 | 0.0 | 0.0 | 0.00 | 0.25 | 0.08 | 94 | 1007.2 |
| 20260506091549 | 11 | 0 | 0.0 | 0.0 | 0.00 | 0.25 | 0.08 | 95 | 1007.5 |
| 20260506090049 | 11 | 0 | 0.0 | 0.0 | 0.00 | 0.25 | 0.08 | 94 | 1007.3 |
| 20260506084552 | 11 | 0 | 0.0 | 0.0 | 0.00 | 0.25 | 0.08 | 94 | 1007.6 |
| 20260506083048 | 11 | 0 | 0.0 | 0.0 | 0.00 | 0.25 | 0.08 | 93 | 1007.7 |
| 20260506081550 | 11 | 0 | 0.0 | 0.0 | 0.00 | 0.25 | 0.08 | 94 | 1007.5 |
| 20260506073053 | 12 | 0 | 0.0 | 0.0 | 0.00 | 0.25 | 0.08 | 94 | 1007.9 |
| 20260506071554 | 11 | 0 | 0.0 | 0.0 | 0.03 | 0.25 | 0.08 | 93 | 1007.9 |
| 20260506070104 | 11 | 0 | 0.0 | 0.0 | 0.03 | 0.25 | 0.08 | 92 | 1007.7 |
| 20260506061559 | 12 | 0 | 0.0 | 0.0 | 0.00 | 0.23 | 0.05 | 93 | 1007.9 |
| 20260506060104 | 12 | 0 | 0.0 | 0.0 | 0.00 | 0.23 | 0.05 | 92 | 1007.8 |
| 20260506044554 | 13 | 0 | 0.0 | 0.0 | 0.05 | 0.23 | 0.05 | 87 | 1008.6 |
| 20260506043057 | 14 | 0 | 0.0 | 0.0 | 0.05 | 0.23 | 0.05 | 85 | 1008.4 |
| 20260506041557 | 15 | 0 | 0.0 | 0.0 | 0.03 | 0.20 | 0.03 | 83 | 1007.9 |
| 20260506034603 | 16 | 0 | 0.0 | 0.0 | 0.00 | 0.18 | 0.18 | 75 | 1008.1 |
| 20260506033057 | 16 | 0 | 0.0 | 0.0 | 0.00 | 0.18 | 0.18 | 76 | 1007.8 |
| 20260506031604 | 16 | 0 | 0.0 | 0.0 | 0.00 | 0.18 | 0.18 | 75 | 1007.7 |
| 20260506024556 | 15 | 0 | 0.0 | 0.0 | 0.00 | 0.18 | 0.18 | 83 | 1007.4 |
| 20260506023056 | 15 | 0 | 0.0 | 0.0 | 0.00 | 0.18 | 0.18 | 85 | 1007.1 |
| 20260506021556 | 14 | 0 | 0.0 | 0.0 | 0.00 | 0.18 | 0.18 | 86 | 1006.7 |
| 20260506020057 | 14 | 0 | 0.0 | 0.0 | 0.00 | 0.18 | 0.18 | 80 | 1006.7 |
| 20260506014554 | 15 | 0 | 0.0 | 0.0 | 0.00 | 0.18 | 0.18 | 84 | 1006.6 |
| 20260506013051 | 14 | 0 | 0.0 | 0.0 | 0.00 | 0.18 | 0.18 | 87 | 1006.2 |
| 20260506011553 | 13 | 0 | 0.0 | 0.0 | 0.00 | 0.18 | 0.18 | 87 | 1006.2 |
| 20260506010057 | 13 | 0 | 0.0 | 0.0 | 0.00 | 0.18 | 0.18 | 85 | 1006.0 |
| 20260506004554 | 14 | 0 | 0.0 | 0.0 | 0.00 | 0.18 | 0.18 | 86 | 1005.5 |
| 20260506003049 | 13 | 0 | 0.0 | 0.0 | 0.00 | 0.18 | 0.18 | 86 | 1005.4 |
| 20260506001551 | 13 | 0 | 0.0 | 0.0 | 0.00 | 0.18 | 0.18 | 85 | 1005.4 |
| 20260506000055 | 13 | 0 | 0.0 | 0.0 | 0.00 | 0.18 | 0.18 | 83 | 1005.4 |
| 20260505234557 | 13 | 0 | 0.0 | 0.0 | 0.00 | 0.18 | 0.18 | 78 | 1005.2 |
| 20260505233053 | 15 | 0 | 0.0 | 0.0 | 0.00 | 0.18 | 0.18 | 77 | 1005.1 |
| 20260505231555 | 15 | 0 | 0.0 | 0.0 | 0.00 | 0.18 | 0.18 | 75 | 1005.1 |
| 20260505230050 | 17 | 0 | 0.0 | 12.9 | 0.00 | 0.18 | 0.18 | 72 | 1004.8 |
| 20260505224552 | 17 | 225 | 3.2 | 19.3 | 0.00 | 0.18 | 0.18 | 71 | 1004.9 |
| 20260505223053 | 18 | 0 | 3.2 | 17.7 | 0.00 | 0.18 | 0.18 | 71 | 1004.6 |